Regional Weather Roundup
Issued by NWS

Home | Current Version | Previous Version | Graphics & Text | Print | Product List | Glossary Off
Versions: 1 2 3 4 5 6 7 8 9 10 11 12 13 14 15 16 17 18 19 20 21 22 23 24 25 26 27 28 29 30 31 32 33 34 35 36 37 38 39 40 41 42 43 44 45 46 47 48 49 50

000
ASUS43 KTOP 271708
RWRKS

WEATHER ROUNDUP FOR KANSAS
NATIONAL WEATHER SERVICE GOODLAND KS
1200 PM CDT FRI MAR 27 2015

NOTE:  "FAIR" INDICATES FEW OR NO CLOUDS BELOW 12,000 FEET WITH NO
SIGNIFICANT WEATHER AND/OR OBSTRUCTIONS TO VISIBILITY.

KSZ001>006-013>018-027>032-041>047-271800-
NORTHWEST KANSAS

CITY           SKY/WX    TMP DP  RH WIND       PRES   REMARKS
GOODLAND       PTSUNNY   48  30  49 SW16G22   30.16F
HAYS           CLOUDY    39  21  48 S3        30.26S
HILL CITY      CLOUDY    39  29  67 S7        30.24F
RUSSELL        CLOUDY    42  25  50 NE7       30.24F
$$

KSZ061>065-074>080-084>089-271800-
SOUTHWEST KANSAS

CITY           SKY/WX    TMP DP  RH WIND       PRES   REMARKS
DODGE CITY     CLOUDY    39  31  72 CALM      30.25F
ELKHART          N/A     48  34  58 SE5         N/A
GARDEN CITY    MOSUNNY   41  31  67 CALM      30.23F
GREAT BEND     PTSUNNY   41  25  52 NE6       30.27S
LIBERAL        SUNNY     46  32  57 E5        30.27S
PRATT          PTSUNNY   39  28  65 E6        30.27F
$$

KSZ066>073-081>083-090>101-271800-
SOUTHEAST KANSAS

CITY           SKY/WX    TMP DP  RH WIND       PRES   REMARKS
CHANUTE        PTSUNNY   43  27  53 N10       30.27S
COFFEYVILLE    MOSUNNY   46  28  49 N15       30.26F
HUTCHINSON     MOSUNNY   44  28  53 VRB6      30.27F
MEDICINE LODGE   N/A     44  29  55 N7        30.27F
NEWTON         MOSUNNY   43  25  49 N9G16     30.28F
PARSONS        PTSUNNY   44  27  51 N15       30.28S
WICHITA INTL   PTSUNNY   43  27  53 VRB5      30.28S
WICHITA JABRA  MOSUNNY   43  27  53 NE12      30.26F
WICHITA MCCONL MOSUNNY   44  27  52 NE8       30.27F
WINFIELD       MOSUNNY   45  29  53 NE9       30.28F
$$

KSZ007>012-019>026-033>040-048>060-102>105-271800-
NORTHEAST KANSAS

CITY           SKY/WX    TMP DP  RH WIND       PRES   REMARKS
CONCORDIA      MOSUNNY   41  22  46 N10       30.26F
EMPORIA        MOSUNNY   43  25  49 N12G21    30.26F
LAWRENCE       MOSUNNY   39  23  52 N12G18    30.28F WCI  32
MANHATTAN      SUNNY     41  23  48 N10G18    30.28F
MARYSVILLE     SUNNY     36  23  60 N5        30.28F
OLATHE IND     MOSUNNY   38  25  59 VRB7G17   30.27F
OLATHE EXE     MOSUNNY   38  23  55 N10       30.25F WCI  31
SALINA         SUNNY     44  25  47 E7        30.28F
TOPEKA BILLARD SUNNY     41  24  51 N13       30.29F
TOPEKA FORBES  SUNNY     41  23  48 N14       30.27F
$$



USA.gov is the U.S. government's official web portal to all federal, state and local government web resources and services.